Regional Weather Roundup
Issued by NWS

Home | Current Version | Previous Version | Text Only | Print | Product List | Glossary Off
Versions: 1 2 3 4 5 6 7 8 9 10 11 12 13 14 15 16 17 18 19 20 21 22 23 24 25 26 27 28 29 30 31 32 33 34 35 36 37 38 39 40 41 42 43 44 45 46 47 48 49 50

000
ASUS43 KMKX 290121
RWRWI

WISCONSIN REGIONAL WEATHER ROUNDUP
NATIONAL WEATHER SERVICE MILWAUKEE/SULLIVAN WI
800 PM CDT SAT MAY 28 2016

NOTE: "FAIR" INDICATES FEW OR NO CLOUDS BELOW 12,000 FEET WITH NO
SIGNIFICANT WEATHER AND/OR OBSTRUCTIONS TO VISIBILITY.

WIZ001-002-006>008-014>016-023>028-290200-
NORTHWEST WISCONSIN

CITY           SKY/WX    TMP DP  RH WIND       PRES   REMARKS
SUPERIOR ARPT  CLOUDY    51  51  99 CALM      29.82S
ASHLAND        CLOUDY    57  56  96 NE5       29.81S
HAYWARD        LGT RAIN  63  59  87 NE7       29.79F
SIREN          CLOUDY    63  61  93 NE5       29.79S
CUMBERLAND     CLOUDY    63  61  94 NE6       29.79R
RICE LAKE      CLOUDY    62  58  88 CALM      29.79S
CHETEK         LGT RAIN  62  62  98 CALM      29.78S
LADYSMITH      MOCLDY    70  64  80 W10G16    29.81R
EAU CLAIRE     LGT RAIN  64  60  87 S6        29.78R
MENOMONIE      LGT RAIN  64  64  97 SE5       29.78F
NEW RICHMOND   CLOUDY    64  63  94 NW5       29.79R
OSCEOLA        CLOUDY    64  64 100 CALM      29.82R
$$

WIZ003>005-009-010-017-018-290200-
NORTH CENTRAL WISCONSIN

CITY           SKY/WX    TMP DP  RH WIND       PRES   REMARKS
MANITOWISH WTR NOT AVBL
ARBOR VITAE    PTCLDY    69  67  90 CALM      29.82S
WOODRUFF       PTCLDY    69  67  90 CALM      29.82S
RHINELANDER    CLOUDY    72  62  71 CALM      29.82S
EAGLE RIVER      N/A     68  63  84 CALM      29.83R
LAND O LAKES   PTCLDY    67  65  93 CALM      29.84S
PHILLIPS       CLOUDY    68  65  90 CALM      29.79F
TOMAHAWK       CLOUDY    69  63  82 CALM      29.81F
MEDFORD        MOCLDY    70  63  78 SE3       29.79S
MERRILL        CLOUDY    71  65  82 SE3       29.80F
$$

WIZ029-030-035-036-043>047-290200-
CENTRAL WISCONSIN

CITY           SKY/WX    TMP DP  RH WIND       PRES   REMARKS
WAUSAU         CLOUDY    74  61  63 CALM      29.78F
MOSINEE        MOCLDY    70  64  83 SE5       29.81R
MARSHFIELD     CLOUDY    72  61  68 S10       29.79S
STEVENS POINT  LGT RAIN  68  64  87 S5        29.81S
WAUPACA        RAIN      76  64  65 CALM      29.81R
WAUTOMA        CLOUDY    68  64  88 S9        29.84R
WISC RAPIDS    CLOUDY    69  64  84 SW3       29.81S
CAMP DOUGLAS   CLOUDY    68  68 100 S10       29.80S
$$

WIZ011>013-019>022-031-037>040-048>050-290200-
NORTHEAST WISCONSIN

CITY           SKY/WX    TMP DP  RH WIND       PRES   REMARKS
ANTIGO         PTCLDY    68  63  82 CALM      29.83S
SHAWANO        CLEAR     77  63  61 S3        29.80S
OCONTO         CLEAR     71  67  89 S8        29.82R
STURGEON BAY   NOT AVBL
GREEN BAY      CLEAR     75  66  73 SE14      29.83R
MANITOWOC      CLEAR     66  59  78 S20G30    29.86S
APPLETON       TSTM      73  57  56 S31G51    29.84R
CLINTONVILLE   PTCLDY    72  63  73 SE6       29.80F
OSHKOSH        TSTM      64  59  83 SW16G23   29.86R
$$

WIZ032>034-041-042-053>061-290200-
SOUTHWEST WISCONSIN

CITY           SKY/WX    TMP DP  RH WIND       PRES   REMARKS
LA CROSSE      MOCLDY    71  63  75 S12       29.77S
SPARTA         CLOUDY    69  64  86 S8        29.80S
VIROQUA        PTCLDY    68  62  82 S9        29.82R
BOSCOBEL       CLOUDY    71  66  84 SW3       29.81S
PRAIRIE DU CHI CLEAR     70  60  69 SW8       29.81S
PLATTEVILLE    CLOUDY    69  67  92 SW3       29.84R
$$

WIZ056-057-062-063-064-067-068-290200-
SOUTH CENTRAL WISCONSIN

CITY           SKY/WX    TMP DP  RH WIND       PRES   REMARKS
REEDSBURG      CLOUDY    68  63  85 S6        29.83R
BARABOO/DELLS  CLOUDY    66  61  85 S5        29.83S
LONE ROCK      MOCLDY    69  65  86 SE3       29.83R
MINERAL POINT  CLOUDY    68  66  94 S6        29.85R
MADISON        CLOUDY    68  64  87 S8        29.84R
MIDDLETON      CLOUDY    67  65  91 S3        29.85R
WATERTOWN      CLOUDY    66  62  87 SW13G32   29.86R
MONROE         CLOUDY    68  61  77 S10       29.86R
JANESVILLE     MOCLDY    64  63  94 W8        29.88S
$$

WIZ051-052-058>065-066-070>072-290200-
SOUTHEAST WISCONSIN

CITY           SKY/WX    TMP DP  RH WIND       PRES   REMARKS
MILWAUKEE      PTCLDY    74  62  66 SE12      29.86S
WAUKESHA       PTCLDY    75  63  64 SE9G18    29.86S
MILWAUKEE/TIMM CLEAR     79  61  53 MISG      29.86S HX  80
RACINE         CLEAR     68  58  70 S12       29.88F
BURLINGTON     PTCLDY    77  63  60 S9        29.85S
KENOSHA        PTCLDY    79  64  60 S16       29.87S HX  81
FOND DU LAC    TSTM      64  60  87 SW18G31   29.91R FOG
SHEBOYGAN      CLEAR     69  60  73 S9        29.86S
WEST BEND      CLEAR     73  61  64 SE6       29.85S
JUNEAU         CLOUDY    64  62  93 SW10      29.90R
$$

LSZ147-162-290200-
LAKE SUPERIOR

STATION/POSITION TIME  TEMP    WIND        PRES    WAVE
                       AIR SEA DIR/SP/G            HT/PER
                 (UTC) (F)     (DEG/KT/KT) (MB)    (FT/S)
W MID LAKE BUOY  0050   40 38  300/  4/  4 1010.1R   1/ 3
DEVILS ISLAND    0100   45        CALM     1010.4R
PORT WING        0000   46     310/  1/  2 1010.2R
SAXON HARBOR     0000   52     180/  3/  6 1009.1S
$$

LMZ867-665-643>646-290200-
LAKE MICHIGAN

STATION/POSITION TIME  TEMP    WIND        PRES    WAVE
                       AIR SEA DIR/SP/G            HT/PER
                 (UTC) (F)     (DEG/KT/KT) (MB)    (FT/S)
CHAMBERS ISLAND  0000   71     150/  7/ 15 1010.2
N MID LAKE BUOY  0050   54 47  190/ 14/ 16 1011.4R   4/ 6
NORTHPORT PIER   0000   63     150/  9/ 16 1010.8R
SISTER BAY       0005   71     180/ 19/ 23   N/A
ALGOMA LAKESHORE 0002          220/ 11/ 13   N/A
KEWAUNEE LAKESHO 0000          180/ 12/ 14   N/A
SHEBOYGAN LAKESH 0100   59     180/ 18/ 18 1011.5S
PORT WASHINGTON  0000   59     190/  6/  9 1012.2R
S MID LAKE BUOY  0050   59 50  150/ 12/ 14 1012.2S   1
KENOSHA   LAKESH 0100   58     170/ 10/ 12 1011.5S
$$

TC  - TEMPERATURE IN CELSIUS
VSB - VISIBILITY IN STATUTE MILES
WCI - WIND CHILL INDEX
HX  - HEAT INDEX





USA.gov is the U.S. government's official web portal to all federal, state and local government web resources and services.